User: anonymous   Login
Location: Bergnershof
(48.9468°N, 10.9431°E)
Time: 18:35:54
(UTC+00:00)
Language:

Cosmos 2333 - Orbit

View from above orbital plane
View from above orbital plane
View from above satellite
View from above satellite

Ground track
Ground track

The orbit data is extracted from the following two-line orbital elements,

1 24297U 96051A   21135.87777193  .00000280  00000-0  17454-3 0  9990
2 24297  70.9047 286.9178 0025080 223.8016 136.1117 14.13358027273692
Epoch (UTC): 15 May 2021 21:03:59
Eccentricity: 0.0025080
inclination: 70.9047°
perigee height: 830 km
apogee height: 866 km
right ascension of ascending node: 286.9178°
argument of perigee: 223.8016°
revolutions per day: 14.13358027
mean anomaly at epoch: 136.1117°
orbit number at epoch: 27369

The dashed part of the orbit path shows where the satellite is in the earth's shadow,  

DLR